Powrót do katalogu

METEOR 3-5

AktywnyPogodaPO
NORAD 21655·PAYLOAD·🇷🇺 Russia

Wystrzelony Aug 15, 1991 z Plesetsk Cosmodrome

Loading…

Następne Przeloty (najbliższe 24 godziny)

TLE

ŚwieżeSource: Space-Track

Epoka: Sep 13, 2026, 23:51 UTC

1 21655U 91056A   26256.99381175 -.00000145  00000-0 -40721-3 0  9993
2 21655  82.5516  76.6065 0012231 275.7122  84.2606 13.17161040686261

Śledź METEOR 3-5 w czasie rzeczywistym z AllMySat

Download on the App Store